Stanley, ND

5:01 AM CDT on August 18, 2017 (GMT -0500)
Stanley

Weather History for K08D - March, 2013

Change the Weather History Date:

Friday, March 1, 2013

  Actual Average (KMIB) Record (KMIB)
Temperature  
Mean Temperature 24 °F -  
Max Temperature 28 °F 19 °F 41 °F (2005)
Min Temperature 19 °F 3 °F -25 °F (2014)
Degree Days  
Heating Degree Days 42    
Moisture  
Dew Point 24 °F    
Average Humidity 99    
Maximum Humidity 100    
Minimum Humidity 93    
Precipitation  
Precipitation 0.00 in - - ()
Sea Level Pressure  
Sea Level Pressure 30.21 in    
Wind  
Wind Speed 9 mph (SSE)    
Max Wind Speed 18 mph    
Max Gust Speed 22 mph    
Visibility 10 miles    
Events      
Averages and records for this station are not official NWS values.
T = Trace of Precipitation, MM = Missing Value Source: NWS Daily Summary

Daily Weather History Graph

Daily Weather History Graph

Search for Another Location

Airport or City:

Trip Planner

Search our weather history database for the weather conditions in past years. The results will help you decide how hot, cold, wet, or windy it might be!

Date:

Astronomy

Mar. 01, 2013 Rise Set
Actual Time 7:30 AM CST 6:34 PM CST
Civil Twilight 6:59 AM CST 7:05 PM CST
Nautical Twilight 6:22 AM CST 7:41 PM CST
Astronomical Twilight 5:46 AM CST 8:18 PM CST
Moon 11:36 PM CST (3/1) 8:55 AM CST (3/1)
Length of Visible Light 12h 06m
Length of Day
11h 03m
Waning Gibbous, 83% of the Moon is Illuminated
Mar 1
Waning Gibbous
Mar 4
Last Quarter
Mar 11
New
Mar 19
First Quarter
Mar 27
Full

Hourly Weather History & Observations

Time (CST) Temp. Windchill Dew Point Humidity Pressure Visibility Wind Dir Wind Speed Gust Speed Precip Events Conditions
12:15 AM 21.2 °F 14.9 °F 21.2 °F 100% 30.24 in 10.0 mi ESE 4.6 mph - N/A   Overcast
12:35 AM 21.2 °F 12.6 °F 21.2 °F 100% 30.24 in 10.0 mi SE 6.9 mph - N/A   Overcast
1:15 AM 21.2 °F 10.9 °F 21.2 °F 100% 30.23 in 10.0 mi SE 9.2 mph - N/A   Overcast
1:35 AM 21.2 °F 11.7 °F 21.2 °F 100% 30.23 in 10.0 mi SE 8.1 mph - N/A   Overcast
2:15 AM 21.2 °F 11.7 °F 21.2 °F 100% 30.24 in 10.0 mi SE 8.1 mph - N/A   Overcast
2:35 AM 21.2 °F 12.6 °F 21.2 °F 100% 30.25 in 10.0 mi SE 6.9 mph - N/A   Overcast
2:55 AM 21.2 °F 10.9 °F 21.2 °F 100% 30.25 in 10.0 mi SE 9.2 mph - N/A   Overcast
3:15 AM 21.2 °F 10.9 °F 21.2 °F 100% 30.25 in 10.0 mi SE 9.2 mph - N/A   Overcast
3:35 AM 21.2 °F 12.6 °F 21.2 °F 100% 30.25 in 10.0 mi SSE 6.9 mph - N/A   Overcast
3:55 AM 21.2 °F 11.7 °F 21.2 °F 100% 30.24 in 10.0 mi SSE 8.1 mph - N/A   Overcast
4:15 AM 21.2 °F 10.9 °F 21.2 °F 100% 30.25 in 10.0 mi SSE 9.2 mph - N/A   Overcast
4:35 AM 21.2 °F 11.7 °F 21.2 °F 100% 30.25 in 10.0 mi SSE 8.1 mph - N/A   Overcast
4:55 AM 21.2 °F 12.6 °F 21.2 °F 100% 30.25 in 10.0 mi SE 6.9 mph - N/A   Overcast
5:15 AM 21.2 °F 11.7 °F 21.2 °F 100% 30.25 in 10.0 mi SSE 8.1 mph - N/A   Overcast
5:35 AM 19.4 °F 10.4 °F 19.4 °F 100% 30.27 in 10.0 mi SSE 6.9 mph - N/A   Overcast
6:15 AM 19.4 °F 11.5 °F 19.4 °F 100% 30.28 in 10.0 mi SSE 5.8 mph - N/A   Overcast
6:35 AM 19.4 °F 11.5 °F 19.4 °F 100% 30.28 in 10.0 mi SSE 5.8 mph - N/A   Overcast
6:55 AM 19.4 °F 10.4 °F 19.4 °F 100% 30.28 in 10.0 mi South 6.9 mph - N/A   Overcast
7:15 AM 21.2 °F 12.6 °F 21.2 °F 100% 30.28 in 10.0 mi SSE 6.9 mph - N/A   Overcast
7:35 AM 21.2 °F 14.9 °F 21.2 °F 100% 30.28 in 10.0 mi SSE 4.6 mph - N/A   Overcast
8:15 AM 21.2 °F 13.6 °F 21.2 °F 100% 30.28 in 5.0 mi South 5.8 mph - N/A   Overcast
8:35 AM 23.0 °F 14.7 °F 23.0 °F 100% 30.28 in 4.0 mi South 6.9 mph - N/A   Overcast
9:15 AM 23.0 °F 13.1 °F 23.0 °F 100% 30.29 in 8.0 mi South 9.2 mph - N/A   Overcast
9:35 AM 23.0 °F 13.9 °F 23.0 °F 100% 30.28 in 8.0 mi South 8.1 mph - N/A   Overcast
10:15 AM 23.0 °F 14.7 °F 23.0 °F 100% 30.28 in 10.0 mi SSW 6.9 mph - N/A   Overcast
10:35 AM 24.8 °F 16.1 °F 24.8 °F 100% 30.28 in 10.0 mi South 8.1 mph - N/A   Overcast
10:55 AM 24.8 °F 15.3 °F 24.8 °F 100% 30.27 in 10.0 mi South 9.2 mph - N/A   Overcast
11:15 AM 24.8 °F 16.1 °F 24.8 °F 100% 30.27 in 10.0 mi South 8.1 mph - N/A   Overcast
11:35 AM 26.6 °F 18.2 °F 26.6 °F 100% 30.27 in 10.0 mi South 8.1 mph - N/A   Overcast
12:15 PM 26.6 °F 15.7 °F 26.6 °F 100% 30.25 in 10.0 mi South 12.7 mph - N/A   Overcast
12:35 PM 26.6 °F 15.7 °F 26.6 °F 100% 30.24 in 10.0 mi South 12.7 mph - N/A   Overcast
1:15 PM 28.4 °F 17.0 °F 26.6 °F 93% 30.23 in 10.0 mi South 15.0 mph - N/A   Overcast
1:35 PM 26.6 °F 14.7 °F 26.6 °F 100% 30.23 in 10.0 mi South 15.0 mph - N/A   Overcast
1:55 PM 26.6 °F 14.7 °F 26.6 °F 100% 30.23 in 10.0 mi SSE 15.0 mph - N/A   Overcast
2:15 PM 26.6 °F 13.8 °F 26.6 °F 100% 30.22 in 10.0 mi South 17.3 mph - N/A   Overcast
2:35 PM 26.6 °F 14.3 °F 26.6 °F 100% 30.22 in 10.0 mi South 16.1 mph - N/A   Overcast
2:55 PM 26.6 °F 13.4 °F 26.6 °F 100% 30.21 in 10.0 mi South 18.4 mph - N/A   Overcast
3:15 PM 26.6 °F 14.7 °F 26.6 °F 100% 30.21 in 10.0 mi South 15.0 mph - N/A   Overcast
3:35 PM 26.6 °F 14.3 °F 26.6 °F 100% 30.21 in 10.0 mi South 16.1 mph - N/A   Overcast
3:55 PM 28.4 °F 17.5 °F 26.6 °F 93% 30.20 in 10.0 mi South 13.8 mph - N/A   Overcast
4:15 PM 28.4 °F 17.5 °F 26.6 °F 93% 30.20 in 10.0 mi SSE 13.8 mph - N/A   Overcast
4:35 PM 28.4 °F 16.6 °F 26.6 °F 93% 30.21 in 10.0 mi South 16.1 mph - N/A   Overcast
4:55 PM 28.4 °F 18.5 °F 26.6 °F 93% 30.21 in 10.0 mi South 11.5 mph - N/A   Overcast
5:15 PM 28.4 °F 17.5 °F 26.6 °F 93% 30.21 in 10.0 mi SSE 13.8 mph - N/A   Overcast
5:35 PM 28.4 °F 18.0 °F 26.6 °F 93% 30.20 in 10.0 mi SSE 12.7 mph - N/A   Mostly Cloudy
5:55 PM 28.4 °F 19.1 °F 26.6 °F 93% 30.20 in 10.0 mi South 10.4 mph - N/A   Scattered Clouds
6:15 PM 26.6 °F 15.7 °F 26.6 °F 100% 30.18 in 10.0 mi South 12.7 mph - N/A   Mostly Cloudy
6:35 PM 26.6 °F 15.2 °F 26.6 °F 100% 30.17 in 10.0 mi South 13.8 mph - N/A   Mostly Cloudy
6:55 PM 26.6 °F 16.2 °F 26.6 °F 100% 30.17 in 10.0 mi South 11.5 mph 17.3 mph N/A   Overcast
7:15 PM 26.6 °F 15.7 °F 26.6 °F 100% 30.16 in 10.0 mi South 12.7 mph - N/A   Overcast
7:35 PM 26.6 °F 16.8 °F 26.6 °F 100% 30.16 in 10.0 mi SSE 10.4 mph - N/A   Overcast
7:55 PM 26.6 °F 15.7 °F 26.6 °F 100% 30.15 in 10.0 mi SSE 12.7 mph 17.3 mph N/A   Overcast
8:15 PM 24.8 °F 14.0 °F 24.8 °F 100% 30.15 in 10.0 mi South 11.5 mph - N/A   Mostly Cloudy
8:35 PM 24.8 °F 13.4 °F 24.8 °F 100% 30.14 in 10.0 mi South 12.7 mph 20.7 mph N/A   Mostly Cloudy
8:55 PM 26.6 °F 15.7 °F 26.6 °F 100% 30.13 in 10.0 mi South 12.7 mph - N/A   Overcast
9:15 PM 26.6 °F 16.2 °F 26.6 °F 100% 30.13 in 10.0 mi SSE 11.5 mph - N/A   Overcast
9:35 PM 26.6 °F 15.7 °F 26.6 °F 100% 30.13 in 10.0 mi South 12.7 mph 21.9 mph N/A   Overcast
9:55 PM 26.6 °F 15.2 °F 26.6 °F 100% 30.12 in 10.0 mi SSE 13.8 mph - N/A   Overcast
10:15 PM 26.6 °F 16.8 °F 26.6 °F 100% 30.13 in 10.0 mi SSE 10.4 mph - N/A   Overcast
10:35 PM 26.6 °F 18.2 °F 26.6 °F 100% 30.11 in 10.0 mi SE 8.1 mph - N/A   Overcast
10:55 PM 26.6 °F 20.0 °F 26.6 °F 100% 30.11 in 10.0 mi SE 5.8 mph - N/A   Overcast
11:15 PM 26.6 °F 19.1 °F 26.6 °F 100% 30.10 in 10.0 mi ESE 6.9 mph - N/A   Overcast
11:35 PM 26.6 °F 18.2 °F 26.6 °F 100% 30.10 in 10.0 mi SSE 8.1 mph - N/A   Overcast
11:55 PM 26.6 °F 17.5 °F 26.6 °F 100% 30.07 in 10.0 mi South 9.2 mph - N/A   Overcast